This is the latest recevied weather packets stored in our database for station/object SM6LNJ-13. If no packets are shown the sender has not sent any weather packets the latest 1 day(s).
| Time | Temp. | Humidity | Pressure | Rain* | Wind** | Luminosity | Snow |
|---|---|---|---|---|---|---|---|
| 1778030990 | 2.22° C | 85% | 1432.1 hPa | 0 mm | 0.45 m/s, 92° | - | - |
| 1778030870 | 2.22° C | 85% | 1432.1 hPa | 0 mm | 0.45 m/s, 87° | - | - |
| 1778030750 | 2.22° C | 85% | 1432.2 hPa | 0 mm | 0.45 m/s, 87° | - | - |
| 1778030630 | 2.22° C | 85% | 1432.1 hPa | 0 mm | 0.45 m/s, 95° | - | - |
| 1778030510 | 2.22° C | 85% | 1435.4 hPa | 0 mm | 0.45 m/s, 87° | - | - |
| 1778030390 | 2.22° C | 85% | 1438.6 hPa | 0 mm | 0.45 m/s, 88° | - | - |
| 1778030270 | 2.22° C | 85% | 1438.6 hPa | 0 mm | 0.45 m/s, 88° | - | - |
| 1778030150 | 2.22° C | 85% | 1438.7 hPa | 0 mm | 0.45 m/s, 94° | - | - |
| 1778030030 | 2.22° C | 85% | 1435.4 hPa | 0 mm | 0.45 m/s, 93° | - | - |
| 1778029910 | 2.22° C | 85% | 1435.4 hPa | 0 mm | 0.45 m/s, 91° | - | - |
| 1778029790 | 2.78° C | 85% | 1432.2 hPa | 0 mm | 0.45 m/s, 99° | - | - |
| 1778029670 | 2.78° C | 85% | 1428.9 hPa | 0 mm | 0.45 m/s, 100° | - | - |
| 1778029550 | 2.78° C | 85% | 1429 hPa | 0 mm | 0.45 m/s, 107° | - | - |
| 1778029430 | 2.78° C | 85% | 1429 hPa | 0 mm | 0.45 m/s, 102° | - | - |
| 1778029310 | 2.78° C | 85% | 1429 hPa | 0 mm | 0.45 m/s, 104° | - | - |
| 1778029190 | 2.78° C | 85% | 1429.1 hPa | 0 mm | 0.45 m/s, 99° | - | - |
| 1778029070 | 2.78° C | 85% | 1428.9 hPa | 0 mm | 0.45 m/s, 104° | - | - |
| 1778029065 | 2.78° C | 85% | 1428.9 hPa | 0 mm | 0.45 m/s, 104° | - | - |
| 1778028830 | 2.78° C | 85% | 1428.9 hPa | 0 mm | 0.45 m/s, 111° | - | - |
| 1778028710 | 2.78° C | 85% | 1429 hPa | 0 mm | 0.45 m/s, 101° | - | - |
| 1778028590 | 2.78° C | 85% | 1429.1 hPa | 0 mm | 0.45 m/s, 110° | - | - |
| 1778028470 | 2.78° C | 85% | 1429 hPa | 0 mm | 0.45 m/s, 95° | - | - |
| 1778028350 | 2.78° C | 84% | 1428.9 hPa | 0 mm | 0.89 m/s, 100° | - | - |
| 1778028230 | 2.22° C | 84% | 1432.1 hPa | 0 mm | 0.89 m/s, 105° | - | - |
| 1778028110 | 2.22° C | 84% | 1441.8 hPa | 0 mm | 0.89 m/s, 103° | - | - |
* Rain latest hour (hover to see other rain measurements)
** Current wind speed in m/s (hover to see current wind gust speed)